Location: Waco, TX
(31.5480°N, 97.1670°W)
Time: 01:10:11
(UTC-05:00)

ISS - Pass Details

Date: 14 October 2018
Orbit: 403 x 408 km, 51.6° (Epoch: 21 October)

Event Time Altitude Azimuth Distance (km) Brightness Sun altitude
Rises 10:07:13 0° 180° (S) 2,305 0.4 30.1°
Reaches altitude 10° 10:10:39 10° 141° (SE) 1,453 0.4 30.7°
Maximum altitude 10:11:32 11° 125° (SE) 1,406 0.6 30.8°
Drops below altitude 10° 10:12:25 10° 109° (ESE) 1,457 0.4 31.0°
Sets 10:15:52 0° 71° (ENE) 2,324 0.5 31.6°
